sat.trackr.live / text

‹ back to catalog

STARLINK-4289

NORAD 53024 · 2022-076AQ

PAYLOAD ACTIVE UNKNOWN

§ Identity

Operator
Country
US
Launch date
2022-07-07
Launch site
AFETR
Launch vehicle
Mass (kg)
RCS (m²)

Purposes: comms

External: N2YO · Heavens-Above · Gunter

§ Orbital elements

Epoch: 2026-05-25T04:07:26.082624Z

Period
95.44 min
Inclination
53.2137°
Eccentricity
0.0001404
Mean motion
15.08847516 rev/d
Perigee alt
538.7 km
Apogee alt
540.7 km
Semi-major
6,917.9 km
B*
9.1504e-5
RAAN
100.7768°
Arg perigee
86.8955°
Mean anomaly
273.2198°
Rev number
21,453

§ Raw data

STARLINK-42891 53024U 22076AQ  26145.17182966  .00001169  00000+0  91504-4 0  99982 53024  53.2137 100.7768 0001404  86.8955 273.2198 15.08847516214538

JSON: /api/v1/satellites/53024 · /tle

For live sub-satellite position, see the globe view (requires WebGL).

§ Visibility from observer

Set your observer location to see the next 7 days of passes ≥ 10°. The values pass through the URL so the page stays shareable.

No JS? Fill the form by hand. The geolocation button needs JavaScript.